Home   Weather   Stavanger   Past weeks

Flag for Norway Past Weather in Stavanger, Norway — Yesterday and Last 2 Weeks

Now
43 °F

Passing clouds.


Feels Like: 40 °F
Forecast: 46 / 48 °F
Wind: 5 mph from North

Location: Stavanger / Sola

Current Time: Dec 3, 2016 at 8:46:48 pm

Latest Report: Dec 3, 2016 at 7:50 pm


Visibility: N/A

Pressure: 30.24 "Hg

Humidity: 93%

Dew Point: 41 °F

Location of StavangerLocation

Past Weather in Stavanger — Graph

°F

Stavanger Temperature Yesterday

Maximum temperature yesterday: 39 °F (at 1:20 pm)
Minimum temperature yesterday: 27 °F (at 10:20 pm)
Average temperature yesterday: 34 °F

High & Low Weather Summary for the Past Weeks

 TemperatureHumidityPressure
High50 °F (Nov 22, 12:20 pm)100% (Nov 23, 2:50 am)30.51 "Hg (Nov 23, 2:50 am)
Low25 °F (Nov 28, 4:50 am)61% (Nov 26, 3:50 pm)29.03 "Hg (Nov 18, 7:20 pm)
Average40 °F84%29.95 "Hg
* Reported Nov 18 7:20 pm — Dec 3 7:50 pm, Stavanger, Weather by CustomWeather, © 2016

Note: Actual official high and low records may vary slightly from our data, if they occured in-between our weather recording intervals... More about our weather records

Advertising

Stavanger Weather History for the Previous 24 Hours

Scroll right to see more
 ConditionsComfort  
Time TempWeatherWind HumidityBarometerVisibility
7:50 pm
Sat, Dec 3
43 °FPassing clouds.5 mph93%30.24 "HgN/A
7:20 pm43 °FPartly cloudy.9 mph93%30.24 "HgN/A
6:50 pm45 °FPassing clouds.13 mph87%30.24 "HgN/A
6:20 pm45 °FPartly cloudy.13 mph87%30.24 "HgN/A
5:50 pm41 °FPartly cloudy.12 mph93%30.24 "HgN/A
5:20 pm41 °FPartly cloudy.6 mph93%30.24 "HgN/A
4:50 pm45 °FPartly cloudy.9 mph87%30.21 "HgN/A
4:20 pm45 °FPartly cloudy.13 mph87%30.21 "HgN/A
3:50 pm45 °FScattered showers. Partly cloudy.13 mph87%30.21 "HgN/A
3:20 pm45 °FPartly sunny.10 mph87%30.21 "HgN/A
2:50 pm39 °FPartly sunny.7 mph87%30.21 "HgN/A
2:20 pm37 °FPartly sunny.5 mph87%30.24 "HgN/A
1:50 pm36 °FPartly sunny.6 mph93%30.24 "HgN/A
1:20 pm36 °FDrizzle. Partly sunny.6 mph87%30.24 "HgN/A
12:50 pm36 °FDrizzle. Broken clouds.7 mph87%30.24 "HgN/A
12:20 pm34 °FBroken clouds.5 mph87%30.24 "HgN/A
11:50 am34 °FPartly sunny.5 mph87%30.24 "HgN/A
11:20 am32 °FPartly sunny.3 mph87%30.27 "HgN/A
10:50 am32 °FPartly sunny.3 mph80%30.27 "HgN/A
10:20 am30 °FScattered clouds.5 mph86%30.27 "HgN/A
9:50 am30 °FPartly sunny.8 mph86%30.24 "HgN/A
9:20 am28 °FPartly sunny.2 mph93%30.24 "HgN/A
8:50 am28 °FPassing clouds.2 mph86%30.24 "HgN/A
8:20 am27 °FPassing clouds.2 mph93%30.27 "HgN/A
7:50 am27 °FPassing clouds.2 mph93%30.27 "HgN/A
7:20 am25 °FPassing clouds.3 mph93%30.27 "HgN/A
6:50 am27 °FPassing clouds.5 mph93%30.27 "HgN/A
6:20 am27 °FPassing clouds.No wind93%30.27 "HgN/A
5:50 am27 °FPassing clouds.2 mph93%30.27 "HgN/A
4:50 am27 °FPassing clouds.2 mph93%30.27 "HgN/A
3:50 am27 °FPassing clouds.2 mph93%30.27 "HgN/A
2:50 am27 °FPassing clouds.No wind93%30.27 "HgN/A
1:50 am25 °FClear.2 mph93%30.27 "Hg10 mi
1:20 am25 °FClear.2 mph100%30.27 "Hg10 mi
11:50 pm
Fri, Dec 2
27 °FClear.2 mph93%30.27 "Hg10 mi
11:20 pm27 °FClear.1 mph93%30.27 "Hg10 mi
10:50 pm27 °FClear.2 mph93%30.27 "Hg10 mi
10:20 pm27 °FClear.No wind86%30.27 "Hg10 mi
9:50 pm28 °FClear.No wind93%30.27 "Hg10 mi
9:20 pm28 °FClear.No wind93%30.27 "Hg10 mi
8:50 pm30 °FClear.No wind86%30.27 "Hg10 mi
8:20 pm32 °FClear.5 mph80%30.27 "Hg10 mi
Weather by CustomWeather, © 2016

See weather overviewHow to use our weather pages